Weather History for Williston, ND

Change the Weather History Date:

Saturday, November 9, 2013

  Actual Average Record
Temperature  
Mean Temperature 28 °F 31 °F  
Max Temperature 37 °F 42 °F 67 °F (1912)
Min Temperature 18 °F 20 °F -12 °F (1945)
Degree Days  
Heating Degree Days 37 34  
Month to date heating degree days 279 287  
Since 1 July heating degree days 1188 1314  
Cooling Degree Days 0 0  
Month to date cooling degree days 0 0  
Year to date cooling degree days 405 456  
Moisture  
Dew Point 22 °F    
Average Humidity 72    
Maximum Humidity 88    
Minimum Humidity 56    
Precipitation  
Precipitation 0.00 in 0.02 in 0.76 in (1911)
Month to date precipitation 0.12 0.23  
Year to date precipitation 19.98 13.33  
Sea Level Pressure  
Sea Level Pressure 30.19 in    
Wind  
Wind Speed 11 mph (WNW)    
Max Wind Speed 29 mph    
Max Gust Speed 36 mph    
Visibility 10 miles    
Events      
T = Trace of Precipitation, MM = Missing Value Source: NWS Daily Summary

Daily Weather History Graph

Daily Weather History Graph

Search for Another Location

Airport:

Trip Planner

Search our weather history database for the weather conditions in past years. The results will help you decide how hot, cold, wet, or windy it might be!

Date:

Astronomy

Nov. 09, 2013 Rise Set
Actual Time 7:52 AM CST 5:23 PM CST
Civil Twilight 7:19 AM CST 5:56 PM CST
Nautical Twilight 6:41 AM CST 6:34 PM CST
Astronomical Twilight 6:05 AM CST 7:10 PM CST
Moon 1:26 PM CST (11/9) No Moon Set
Length of Visible Light 10h 37m
Length of Day
9h 30m
Waxing Crescent, 44% of the Moon is Illuminated
Nov 9
Waxing Crescent
Nov 9
First Quarter
Nov 17
Full
Nov 25
Last Quarter
Dec 2
New

Hourly Weather History & Observations

Time (CST) Temp. Windchill Dew Point Humidity Pressure Visibility Wind Dir Wind Speed Gust Speed Precip Events Conditions
12:52 AM 35.1 °F 23.3 °F 27.0 °F 72% 29.95 in 10.0 mi NW 23.0 mph 28.8 mph N/A   Overcast
1:52 AM 34.0 °F 24.2 °F 25.0 °F 70% 29.98 in 10.0 mi NW 15.0 mph 25.3 mph N/A   Overcast
2:08 AM 33.8 °F 24.3 °F 24.8 °F 70% 29.93 in 10.0 mi WNW 13.8 mph 20.7 mph N/A   Overcast
2:52 AM 33.1 °F 23.9 °F 25.0 °F 72% 29.98 in 10.0 mi West 12.7 mph - N/A   Overcast
3:52 AM 32.0 °F 22.1 °F 24.1 °F 73% 30.00 in 10.0 mi WNW 13.8 mph - N/A   Partly Cloudy
4:46 AM 33.8 °F 23.5 °F 24.8 °F 70% 29.98 in 10.0 mi WNW 16.1 mph 21.9 mph N/A   Overcast
4:52 AM 33.1 °F 21.5 °F 24.1 °F 70% 30.04 in 10.0 mi WNW 19.6 mph 24.2 mph N/A   Overcast
5:52 AM 34.0 °F 23.0 °F 23.0 °F 64% 30.07 in 10.0 mi WNW 18.4 mph 27.6 mph N/A   Overcast
6:52 AM 32.0 °F 18.4 °F 21.9 °F 66% 30.12 in 10.0 mi NW 26.5 mph 34.5 mph N/A   Overcast
7:52 AM 32.0 °F 22.1 °F 23.0 °F 69% 30.15 in 10.0 mi NW 13.8 mph 25.3 mph N/A   Overcast
8:52 AM 32.0 °F 22.1 °F 21.9 °F 66% 30.19 in 10.0 mi NW 13.8 mph 26.5 mph N/A   Overcast
9:52 AM 32.0 °F 19.5 °F 21.9 °F 66% 30.22 in 10.0 mi NW 21.9 mph 26.5 mph N/A   Overcast
10:52 AM 30.9 °F 19.8 °F 21.9 °F 69% 30.25 in 10.0 mi NNW 16.1 mph 24.2 mph N/A   Overcast
11:52 AM 30.9 °F 19.4 °F 21.9 °F 69% 30.29 in 10.0 mi NW 17.3 mph 20.7 mph N/A   Overcast
12:52 PM 33.1 °F 23.9 °F 21.0 °F 61% 30.29 in 10.0 mi NW 12.7 mph 18.4 mph N/A   Overcast
1:52 PM 33.1 °F 24.4 °F 21.0 °F 61% 30.29 in 10.0 mi NW 11.5 mph - N/A   Scattered Clouds
2:17 PM 35.6 °F 28.0 °F 21.2 °F 56% 30.22 in 10.0 mi NW 10.4 mph - N/A   Mostly Cloudy
2:46 PM 35.6 °F 29.2 °F 21.2 °F 56% 30.21 in 10.0 mi WNW 8.1 mph - N/A   Scattered Clouds
2:52 PM 36.0 °F 28.5 °F 21.9 °F 57% 30.28 in 10.0 mi NW 10.4 mph - N/A   Partly Cloudy
3:52 PM 36.0 °F 30.3 °F 21.9 °F 57% 30.29 in 10.0 mi WNW 6.9 mph - N/A   Partly Cloudy
4:52 PM 34.0 °F 28.8 °F 23.0 °F 64% 30.29 in 10.0 mi West 5.8 mph - N/A   Clear
5:52 PM 27.0 °F 21.6 °F 21.0 °F 78% 30.32 in 10.0 mi SW 4.6 mph - N/A   Clear
6:52 PM 28.0 °F - 21.0 °F 75% 30.32 in 10.0 mi Calm Calm - N/A   Clear
7:52 PM 24.1 °F 19.7 °F 19.9 °F 84% 30.32 in 10.0 mi SW 3.5 mph - N/A   Clear
8:52 PM 23.0 °F - 19.0 °F 85% 30.30 in 10.0 mi Calm Calm - N/A   Clear
9:52 PM 23.0 °F - 19.9 °F 88% 30.29 in 10.0 mi Calm Calm - N/A   Clear
10:52 PM 19.9 °F - 16.0 °F 85% 30.30 in 10.0 mi Calm Calm - N/A   Clear
11:52 PM 21.0 °F 16.2 °F 18.0 °F 88% 30.29 in 10.0 mi SSW 3.5 mph - N/A   Clear